Escanaba, MI

4:26 AM EST on February 25, 2017 (GMT -0500)
Delta County

Weather History for KESC - January, 2012

Change the Weather History Date:

Wednesday, January 4, 2012

  Actual Average Record
Temperature  
Mean Temperature 23 °F -  
Max Temperature 32 °F 24 °F 41 °F (2007)
Min Temperature 14 °F 8 °F -13 °F (1968)
Degree Days  
Heating Degree Days 42    
Moisture  
Dew Point 12 °F    
Average Humidity 66    
Maximum Humidity 80    
Minimum Humidity 58    
Precipitation  
Precipitation 0.00 in - - ()
Sea Level Pressure  
Sea Level Pressure 29.87 in    
Wind  
Wind Speed 6 mph (West)    
Max Wind Speed 10 mph    
Max Gust Speed -    
Visibility 10 miles    
Events      
Averages and records for this station are not official NWS values.
T = Trace of Precipitation, MM = Missing Value Source: NWS Daily Summary

Daily Weather History Graph

Daily Weather History Graph

Search for Another Location

Airport or City:

Trip Planner

Search our weather history database for the weather conditions in past years. The results will help you decide how hot, cold, wet, or windy it might be!

Date:

Astronomy

Jan. 04, 2012 Rise Set
Actual Time 8:29 AM EST 5:17 PM EST
Civil Twilight 7:55 AM EST 5:51 PM EST
Nautical Twilight 7:17 AM EST 6:28 PM EST
Astronomical Twilight 6:41 AM EST 7:04 PM EST
Moon 1:41 PM EST (1/4) 4:14 AM EST (1/4)
Length of Visible Light 9h 56m
Length of Day
8h 48m
Waxing Gibbous, 80% of the Moon is Illuminated
Jan 4
Waxing Gibbous
Jan 9
Full
Jan 16
Last Quarter
Jan 23
New
Jan 30
First Quarter

Hourly Weather History & Observations

Time (EST) Temp. Windchill Dew Point Humidity Pressure Visibility Wind Dir Wind Speed Gust Speed Precip Events Conditions
12:15 AM 19.4 °F 9.5 °F 6.8 °F 58% 29.90 in 10.0 mi WSW 8.1 mph - N/A   Clear
12:35 AM 19.4 °F 8.6 °F 6.8 °F 58% 29.89 in 10.0 mi SW 9.2 mph - N/A   Clear
12:55 AM 19.4 °F 10.4 °F 6.8 °F 58% 29.88 in 10.0 mi WSW 6.9 mph - N/A   Clear
1:15 AM 17.6 °F 8.2 °F 6.8 °F 63% 29.87 in 10.0 mi WSW 6.9 mph - N/A   Clear
1:55 AM 17.6 °F 10.7 °F 5.0 °F 58% 29.86 in 10.0 mi WSW 4.6 mph - N/A   Clear
2:15 AM 17.6 °F 9.3 °F 5.0 °F 58% 29.85 in 10.0 mi WSW 5.8 mph - N/A   Clear
2:35 AM 15.8 °F 8.6 °F 5.0 °F 62% 29.86 in 10.0 mi WSW 4.6 mph - N/A   Clear
2:55 AM 15.8 °F 8.6 °F 6.8 °F 68% 29.87 in 10.0 mi West 4.6 mph - N/A   Clear
3:35 AM 15.8 °F 8.6 °F 5.0 °F 62% 29.86 in 10.0 mi West 4.6 mph - N/A   Clear
3:55 AM 15.8 °F 10.2 °F 6.8 °F 68% 29.86 in 10.0 mi West 3.5 mph - N/A   Clear
4:15 AM 14.0 °F 6.5 °F 6.8 °F 73% 29.86 in 10.0 mi West 4.6 mph - N/A   Clear
4:35 AM 14.0 °F 5.1 °F 5.0 °F 67% 29.85 in 10.0 mi West 5.8 mph - N/A   Clear
5:15 AM 14.0 °F 3.9 °F 5.0 °F 67% 29.82 in 10.0 mi West 6.9 mph - N/A   Clear
5:35 AM 14.0 °F 2.9 °F 3.2 °F 62% 29.83 in 10.0 mi WNW 8.1 mph - N/A   Clear
5:55 AM 14.0 °F 1.2 °F 3.2 °F 62% 29.84 in 10.0 mi West 10.4 mph - N/A   Partly Cloudy
6:15 AM 14.0 °F 2.0 °F 6.8 °F 73% 29.84 in 10.0 mi West 9.2 mph - N/A   Mostly Cloudy
6:55 AM 15.8 °F 4.2 °F 5.0 °F 62% 29.85 in 10.0 mi West 9.2 mph - N/A   Overcast
7:15 AM 15.8 °F 5.1 °F 6.8 °F 68% 29.85 in 10.0 mi West 8.1 mph - N/A   Overcast
7:35 AM 15.8 °F 5.1 °F 6.8 °F 68% 29.85 in 10.0 mi West 8.1 mph - N/A   Overcast
7:55 AM 17.6 °F 8.2 °F 6.8 °F 63% 29.84 in 10.0 mi West 6.9 mph - N/A   Overcast
8:55 AM 17.6 °F 7.3 °F 8.6 °F 68% 29.86 in 10.0 mi West 8.1 mph - N/A   Overcast
9:15 AM 19.4 °F 10.4 °F 8.6 °F 63% 29.86 in 10.0 mi West 6.9 mph - N/A   Overcast
9:35 AM 19.4 °F 11.5 °F 10.4 °F 68% 29.86 in 10.0 mi West 5.8 mph - N/A   Overcast
10:15 AM 21.2 °F 14.9 °F 10.4 °F 63% 29.87 in 10.0 mi West 4.6 mph - N/A   Partly Cloudy
10:35 AM 21.2 °F 14.9 °F 10.4 °F 63% 29.87 in 10.0 mi WSW 4.6 mph - N/A   Clear
11:15 AM 24.8 °F 15.3 °F 12.2 °F 59% 29.86 in 10.0 mi West 9.2 mph - N/A   Clear
11:55 AM 26.6 °F 18.2 °F 14.0 °F 59% 29.86 in 10.0 mi West 8.1 mph - N/A   Clear
12:15 PM 26.6 °F 16.8 °F 15.8 °F 64% 29.87 in 10.0 mi WNW 10.4 mph - N/A   Clear
12:35 PM 28.4 °F 21.2 °F 15.8 °F 59% 29.85 in 10.0 mi West 6.9 mph - N/A   Clear
12:55 PM 28.4 °F 22.2 °F 17.6 °F 64% 29.85 in 10.0 mi WNW 5.8 mph - N/A   Clear
1:15 PM 30.2 °F 22.6 °F 17.6 °F 60% 29.85 in 10.0 mi WNW 8.1 mph - N/A   Clear
1:35 PM 30.2 °F 21.3 °F 19.4 °F 64% 29.84 in 10.0 mi WNW 10.4 mph - N/A   Clear
1:55 PM 32.0 °F 23.6 °F 19.4 °F 60% 29.84 in 10.0 mi WNW 10.4 mph - N/A   Clear
2:15 PM 32.0 °F 23.6 °F 19.4 °F 60% 29.83 in 10.0 mi WNW 10.4 mph - N/A   Partly Cloudy
2:35 PM 32.0 °F 25.6 °F 19.4 °F 60% 29.81 in 10.0 mi WNW 6.9 mph - N/A   Scattered Clouds
3:55 PM 32.0 °F 24.8 °F 19.4 °F 60% 29.85 in 10.0 mi West 8.1 mph - N/A   Clear
4:15 PM 30.2 °F 23.4 °F 19.4 °F 64% 29.86 in 10.0 mi WNW 6.9 mph - N/A   Clear
5:15 PM 30.2 °F 25.4 °F 19.4 °F 64% 29.89 in 10.0 mi WSW 4.6 mph - N/A   Overcast
5:35 PM 30.2 °F 25.4 °F 17.6 °F 60% 29.90 in 10.0 mi WSW 4.6 mph - N/A   Scattered Clouds
5:55 PM 30.2 °F 26.7 °F 19.4 °F 64% 29.90 in 10.0 mi WSW 3.5 mph - N/A   Scattered Clouds
6:15 PM 28.4 °F 24.6 °F 17.6 °F 64% 29.90 in 10.0 mi WSW 3.5 mph - N/A   Mostly Cloudy
6:55 PM 26.6 °F 20.0 °F 17.6 °F 69% 29.92 in 10.0 mi West 5.8 mph - N/A   Clear
7:15 PM 26.6 °F 21.2 °F 17.6 °F 69% 29.93 in 10.0 mi West 4.6 mph - N/A   Clear
7:35 PM 26.6 °F 21.2 °F 17.6 °F 69% 29.92 in 10.0 mi WSW 4.6 mph - N/A   Clear
7:55 PM 24.8 °F - 17.6 °F 74% 29.92 in 10.0 mi Calm Calm - N/A   Clear
8:15 PM 23.0 °F 17.0 °F 15.8 °F 74% 29.92 in 10.0 mi SSW 4.6 mph - N/A   Clear
8:35 PM 23.0 °F 18.4 °F 15.8 °F 74% 29.93 in 10.0 mi WSW 3.5 mph - N/A   Clear
8:55 PM 24.8 °F - 17.6 °F 74% 29.93 in 10.0 mi Calm Calm - N/A   Clear
9:15 PM 23.0 °F - 17.6 °F 80% 29.92 in 10.0 mi Calm Calm - N/A   Clear
9:35 PM 21.2 °F - 14.0 °F 74% 29.92 in 10.0 mi Calm Calm - N/A   Clear
10:35 PM 17.6 °F - 12.2 °F 79% 29.92 in 10.0 mi Calm Calm - N/A   Clear
10:55 PM 15.8 °F 10.2 °F 10.4 °F 79% 29.91 in 10.0 mi WSW 3.5 mph - N/A   Clear
11:15 PM 17.6 °F 10.7 °F 10.4 °F 73% 29.92 in 10.0 mi WSW 4.6 mph - N/A   Clear
11:35 PM 17.6 °F 10.7 °F 10.4 °F 73% 29.91 in 10.0 mi WSW 4.6 mph - N/A   Clear
11:55 PM 17.6 °F 9.3 °F 12.2 °F 79% 29.91 in 10.0 mi West 5.8 mph - N/A   Clear